Theta_e
303 308 308 308 309 308 307 305 304 303 303 305 305 304 305 305 305 306 304 300 299 302 304 304 304 304 304 304 304 304 301 300 300 300 299 299 299 298 297 297 296 296 296 297 295 294 294 293 292 291 291 291 291 291 291 290 290 290 289 288 288 288 287 287 286 285 283 282 282 281 281 280 280 279 278 278 277 277 276 276 275 275 274 274 274 274
304 308 308 307 305 303 301 300 300 302 303 304 304 304 304 304 305 305 302 299 299 301 304 304 302 303 303 303 304 303 301 301 300 300 299 299 299 298 297 297 297 296 297 297 296 295 294 293 292 291 291 290 290 290 290 290 290 290 289 288 288 288 287 287 286 285 284 283 282 282 282 281 280 279 279 278 278 277 276 276 275 275 274 274 274 273
308 308 307 302 299 299 299 298 301 303 303 303 303 303 305 305 305 305 301 299 299 300 303 303 301 302 303 303 304 301 300 300 299 298 298 298 298 298 297 297 297 297 297 297 298 297 296 294 293 292 291 291 290 290 290 290 290 289 289 289 288 287 287 287 286 285 284 283 283 282 282 281 280 279 278 278 277 276 276 275 275 275 274 274 273 273
309 307 302 297 298 300 300 299 301 303 303 303 303 304 306 304 304 305 303 299 299 300 301 301 301 302 304 304 303 299 296 297 297 296 296 296 297 297 297 297 297 297 298 298 298 299 298 296 294 293 292 291 290 290 290 290 289 289 289 289 288 287 286 286 286 285 284 283 282 282 281 280 279 278 277 277 276 276 276 275 275 275 274 274 273 273
309 302 296 297 299 301 302 301 302 304 305 304 303 304 305 304 302 304 303 300 302 301 299 301 305 306 305 305 305 301 296 297 297 296 297 296 296 296 296 296 296 296 298 298 298 299 299 298 296 294 293 292 291 291 291 291 290 290 290 289 288 287 287 286 286 285 284 283 282 281 280 279 278 278 277 277 277 276 276 276 275 275 274 273 273 273
307 298 295 300 300 300 302 302 302 303 305 305 303 302 302 302 301 301 301 301 304 304 300 301 307 309 306 306 307 304 300 301 299 298 299 298 297 296 296 297 297 297 297 297 298 299 299 298 297 295 294 292 291 291 292 291 290 290 290 289 288 287 287 286 285 285 283 282 282 281 280 279 279 279 279 278 278 278 277 276 275 275 274 273 273 272
302 296 296 300 300 301 302 302 302 301 304 305 302 299 299 299 299 300 300 301 305 306 301 300 305 308 307 307 306 303 302 304 303 301 301 299 298 297 298 299 299 298 298 297 297 297 297 297 296 295 294 293 292 292 291 290 290 290 289 289 288 287 287 286 285 284 283 282 281 281 280 281 281 281 280 279 278 278 277 276 275 274 274 273 272 272
301 298 298 299 300 302 303 303 301 300 304 305 299 296 298 299 300 300 300 301 303 303 301 300 302 305 306 307 304 301 304 306 305 305 304 301 299 298 298 299 298 298 297 296 296 296 296 296 295 295 294 294 293 292 291 290 289 289 288 288 287 287 286 286 285 284 283 282 281 281 280 280 281 280 280 279 278 277 276 275 275 274 274 273 272 272
301 301 300 299 301 302 303 301 299 300 303 302 296 296 298 298 299 299 299 302 300 300 304 302 301 304 307 306 303 301 304 305 304 305 304 303 301 299 299 298 297 297 296 295 294 295 296 295 295 294 294 293 293 292 291 290 289 288 288 287 287 286 286 285 284 283 283 282 282 281 280 280 280 280 279 278 277 277 276 275 275 274 273 273 272 272
300 300 299 300 302 302 301 297 295 299 302 299 296 296 297 297 298 298 300 302 299 301 306 302 300 303 307 307 305 304 304 304 304 304 303 302 302 301 300 299 298 297 296 295 295 295 296 295 295 294 294 294 293 292 291 290 289 288 287 287 286 286 285 284 284 283 282 282 281 281 280 280 280 279 279 278 277 276 276 275 275 274 273 273 272 272
298 298 298 301 301 299 298 295 294 297 298 297 298 299 300 299 297 298 299 300 301 304 303 299 298 302 305 307 306 305 304 302 302 302 302 302 301 300 300 299 298 297 297 297 297 297 297 296 296 295 295 294 294 293 292 291 290 289 288 287 286 285 285 284 283 283 282 281 281 281 280 280 279 279 278 278 277 276 276 275 275 274 273 273 273 272
299 300 301 300 297 296 297 298 296 295 296 298 300 301 303 303 300 300 300 300 304 307 301 296 297 300 303 306 306 305 303 301 300 301 301 301 300 300 300 299 299 298 298 297 297 297 297 297 296 296 295 294 294 293 292 291 290 289 288 287 286 285 285 284 283 282 282 281 281 280 280 279 279 279 278 278 277 277 276 275 275 274 273 273 273 272
302 301 300 298 296 296 298 301 300 298 298 299 301 302 304 306 305 305 305 304 306 305 298 296 298 300 303 305 305 304 303 300 299 300 300 299 299 299 299 299 299 298 298 297 297 297 297 297 296 295 295 294 294 293 292 291 290 289 288 287 286 286 285 284 283 282 282 281 281 280 280 279 279 278 278 277 277 276 276 275 274 274 274 273 273 272
304 301 299 300 299 296 297 302 303 302 301 301 302 303 305 306 306 307 307 306 306 303 297 295 298 301 304 304 303 302 301 299 298 298 298 297 298 298 298 298 298 298 297 297 297 296 297 297 296 295 294 294 293 293 292 291 290 289 288 287 286 286 285 284 283 282 282 281 281 280 279 279 278 278 277 277 276 276 275 275 274 274 273 273 273 272
305 305 302 301 299 296 297 299 299 300 301 300 299 301 304 304 305 307 307 306 307 304 298 296 299 304 305 303 301 300 299 297 296 296 296 297 297 297 298 298 297 297 297 297 296 296 296 296 295 295 294 294 293 292 292 291 290 289 288 287 286 286 285 284 283 282 282 281 280 280 279 278 278 278 277 276 276 275 274 274 274 273 273 273 272 272
304 305 300 296 295 295 297 296 294 298 301 299 297 300 303 302 303 305 303 301 302 302 300 299 301 303 304 303 300 300 299 297 297 297 297 298 297 297 297 297 297 297 296 296 296 295 296 295 295 294 294 293 293 292 291 291 290 289 288 287 287 286 285 284 283 283 282 281 280 279 279 278 277 277 277 276 275 275 274 273 273 272 272 272 272 271
304 304 298 295 295 294 295 296 294 298 301 299 299 302 300 297 300 303 301 298 298 301 303 301 302 303 303 303 301 300 300 299 298 298 298 298 297 296 297 296 296 296 296 296 295 295 295 295 294 294 293 293 292 292 291 290 290 289 288 287 286 286 285 284 284 283 282 281 280 279 279 278 277 277 276 276 275 274 274 273 272 272 272 271 271 271
302 304 299 296 298 295 292 294 295 295 298 300 301 300 297 295 298 300 301 301 301 304 304 301 302 304 303 304 302 300 300 299 298 298 298 298 297 296 296 296 296 295 295 295 295 295 295 294 294 293 293 292 292 291 291 290 290 289 288 287 286 286 285 284 283 282 282 281 280 279 278 278 277 276 276 275 274 274 273 273 272 271 271 271 270 270
300 304 301 295 297 297 292 295 298 296 295 298 299 297 297 300 301 300 301 303 304 305 304 302 302 303 303 304 303 301 299 298 298 298 298 297 296 296 295 295 295 295 295 295 294 294 295 294 293 293 293 292 292 291 290 290 289 289 288 288 287 286 285 284 283 282 281 281 280 279 278 277 277 276 275 275 274 273 273 272 272 271 271 270 270 270
299 303 303 296 295 296 296 298 302 300 296 295 296 296 297 299 301 300 300 301 302 303 304 303 302 303 303 303 302 300 298 297 297 297 297 296 296 296 295 295 295 294 294 294 294 294 294 294 293 292 292 292 291 291 290 290 289 289 288 288 287 286 285 284 283 282 281 281 280 279 278 277 276 276 275 274 274 273 272 272 271 271 270 270 270 269
299 301 303 300 296 297 300 300 301 302 300 298 299 299 298 297 297 298 298 299 300 302 303 303 303 304 302 301 300 299 297 297 297 296 296 296 296 295 295 294 294 294 294 293 293 293 293 293 292 292 292 292 291 291 290 290 290 289 288 288 287 286 285 284 284 282 281 280 279 279 278 277 276 275 275 274 273 273 272 272 271 271 270 269 269 269
300 301 302 301 300 302 301 297 295 297 298 299 301 301 300 299 298 300 301 298 297 299 301 301 302 303 301 299 299 298 297 296 296 296 296 296 295 295 294 294 294 293 293 293 292 293 293 293 292 292 292 291 291 291 290 290 290 289 289 288 287 286 285 285 284 282 281 280 279 278 278 277 276 275 274 273 273 272 272 271 271 270 270 269 269 268
298 299 300 302 302 301 297 292 291 292 293 295 297 298 298 299 299 301 303 299 296 297 297 296 299 301 299 298 298 297 296 296 296 296 296 295 295 294 294 293 293 293 293 293 293 293 293 292 292 291 291 291 291 291 290 290 290 289 289 288 288 287 286 285 284 282 281 280 279 278 277 276 275 274 274 273 273 272 271 271 271 270 269 269 269 268
298 299 300 302 302 299 294 292 291 291 293 296 296 295 296 298 299 299 299 297 297 298 298 298 300 301 299 297 297 297 296 296 296 296 295 295 294 294 293 293 293 293 293 292 293 293 293 292 291 291 291 291 291 290 290 290 289 289 289 289 288 287 286 285 284 282 281 280 279 278 277 276 275 274 273 273 272 272 271 271 270 270 269 269 268 268
299 300 300 302 303 301 299 298 296 294 295 298 297 294 294 297 298 297 294 294 296 299 299 300 302 302 299 298 298 298 297 296 296 295 295 294 294 293 293 293 292 292 292 292 292 292 292 291 291 291 291 291 291 290 290 290 289 289 289 289 288 287 286 285 284 282 281 280 278 277 276 275 275 274 273 273 272 272 271 271 270 269 269 268 268 267
298 300 299 301 303 302 303 303 301 299 298 297 296 295 294 296 298 298 296 296 298 298 297 299 301 301 300 299 299 299 297 296 295 295 294 294 293 293 293 292 292 292 292 292 291 291 291 291 291 291 290 290 290 290 290 289 289 289 289 288 288 287 286 285 284 282 281 280 278 277 276 275 275 274 273 273 272 271 271 270 270 269 269 268 268 267
296 298 298 300 302 302 303 302 299 298 299 298 299 299 297 296 295 296 296 297 298 297 297 298 299 299 299 299 299 298 297 295 295 294 294 293 293 292 292 292 292 292 292 291 291 291 290 290 290 290 290 290 290 289 289 289 289 289 288 288 288 287 286 285 284 282 281 280 278 277 276 276 275 274 274 273 272 271 271 270 270 269 269 268 268 267
297 299 298 299 301 300 300 299 296 296 297 298 299 299 299 297 295 295 297 298 298 298 299 299 298 298 298 297 298 297 295 294 294 293 293 292 292 292 292 292 292 291 291 291 291 290 290 289 290 290 290 289 289 289 289 288 288 288 288 288 288 287 287 285 284 282 281 280 278 277 277 276 275 274 273 273 272 271 270 270 269 269 268 268 267 267
298 299 297 297 299 298 297 297 296 295 295 296 297 297 297 296 296 296 297 297 297 297 298 298 297 297 297 296 296 295 294 293 293 292 292 292 292 292 292 291 291 291 291 291 290 289 289 289 289 290 289 289 288 288 288 288 288 288 288 288 287 287 287 286 284 283 281 280 279 278 277 276 275 274 273 272 271 271 270 270 269 269 268 268 267 267
296 299 298 296 297 297 296 295 295 295 295 295 296 296 295 295 295 295 295 295 295 295 296 296 296 296 295 295 295 294 293 293 292 292 292 291 291 291 291 291 291 291 291 290 289 289 289 289 289 289 289 288 288 287 287 287 287 287 287 287 287 287 287 286 284 283 282 281 280 279 277 276 275 274 273 272 271 271 270 270 269 268 268 267 267 267
294 298 298 296 298 299 295 293 293 294 294 295 295 295 295 294 294 294 294 294 294 295 295 294 295 295 295 294 293 293 293 292 291 291 291 291 291 291 291 291 291 290 290 289 289 289 288 288 289 289 288 288 287 287 286 286 286 286 286 286 287 287 287 286 285 284 282 281 281 280 277 276 275 274 273 272 271 271 270 270 269 268 268 267 267 266
294 295 295 295 299 300 296 294 295 294 293 294 296 295 294 295 295 295 295 295 295 295 295 295 295 295 294 294 293 292 292 292 291 291 290 291 291 290 291 291 290 290 289 289 289 288 288 288 288 288 288 287 287 286 286 286 286 286 286 286 287 287 286 286 285 284 282 281 281 280 278 276 275 274 273 272 272 271 270 270 269 268 268 267 267 266
293 295 295 295 299 300 297 295 295 295 296 297 296 293 293 294 294 294 294 294 294 294 294 294 294 294 293 293 292 292 292 291 291 290 290 290 290 290 290 290 290 289 289 288 288 288 288 288 288 288 288 287 287 286 286 285 285 286 286 287 287 287 286 286 285 284 283 282 281 279 278 277 275 274 273 273 272 271 270 269 269 268 268 267 267 266
291 295 295 293 296 300 297 295 297 298 299 299 294 292 293 292 292 293 293 293 293 293 293 293 293 293 292 292 292 292 291 291 291 290 290 290 290 290 290 289 289 289 288 288 288 288 288 288 288 288 288 287 287 286 285 285 285 286 286 286 287 286 286 286 285 283 282 281 280 280 279 277 276 275 274 273 272 271 270 269 269 268 268 267 267 266
293 294 293 291 294 297 295 296 300 301 299 296 293 292 292 292 292 292 292 292 292 292 293 292 292 292 292 292 291 291 291 291 290 290 290 290 290 290 289 289 288 288 288 288 287 288 288 288 288 288 287 287 286 285 284 285 285 285 286 286 286 286 286 285 284 282 281 280 280 280 279 278 276 276 275 274 272 271 270 269 269 268 268 267 266 266
294 294 292 291 293 295 295 297 301 300 296 294 293 293 291 291 292 292 292 293 292 292 292 291 291 291 291 291 291 291 290 290 289 290 290 290 289 289 288 288 287 287 287 287 287 288 288 288 288 288 287 286 284 284 284 284 285 285 286 286 286 285 285 284 283 282 281 280 280 280 279 278 277 276 275 274 273 271 270 270 269 268 268 267 266 266
292 294 294 294 294 293 294 296 297 297 296 294 293 292 291 291 291 291 292 292 291 291 291 290 291 291 291 291 291 290 290 289 289 289 289 289 288 288 287 287 287 287 287 287 288 288 288 288 288 287 285 284 283 283 284 284 285 285 285 285 285 284 284 283 282 281 281 280 280 280 280 279 278 277 276 274 273 272 271 270 269 268 268 267 266 266
291 293 294 296 295 293 294 296 297 298 297 294 292 291 291 291 290 290 291 292 291 291 290 290 291 291 290 290 290 289 289 289 288 288 288 288 287 287 287 287 287 287 287 288 288 288 288 287 286 285 283 283 283 283 284 284 285 285 284 283 283 282 282 282 281 281 280 280 280 280 280 280 279 278 276 275 274 272 271 270 269 268 268 267 266 266
291 291 292 295 295 293 295 297 298 299 297 293 290 291 291 290 289 289 291 292 291 290 290 291 290 290 290 289 289 289 289 288 288 288 287 287 287 287 287 287 287 287 288 288 288 287 287 286 284 283 282 282 283 283 283 283 283 282 282 281 280 280 280 280 280 280 280 279 279 279 279 279 279 278 277 276 275 273 271 270 269 268 268 267 266 266
293 291 292 295 295 293 293 295 296 296 295 291 290 291 290 289 288 289 292 293 291 290 290 290 289 289 289 289 289 289 288 288 287 286 286 287 286 286 286 286 287 287 287 286 286 285 285 283 282 282 282 283 283 282 282 281 280 280 279 279 279 279 279 279 278 278 278 277 277 278 278 278 278 278 277 276 275 273 272 270 269 268 267 266 266 265
294 292 291 293 294 293 293 295 295 295 293 291 290 290 290 290 289 290 292 291 290 290 289 289 288 288 288 288 289 288 287 287 286 286 286 286 285 286 286 286 286 285 285 284 284 283 283 282 282 282 282 281 281 280 280 279 278 278 278 278 278 277 277 276 276 276 276 276 276 277 277 277 278 278 277 276 275 273 271 270 269 268 267 266 265 265
293 293 291 290 291 292 291 292 295 295 292 290 290 290 290 290 290 290 290 289 289 289 288 288 288 288 288 288 287 286 286 286 285 285 285 285 285 285 285 284 283 283 283 283 282 282 282 281 281 281 280 279 278 278 277 277 277 277 277 276 276 275 274 274 274 275 275 275 276 277 277 277 278 278 277 276 274 272 271 270 269 268 267 266 265 264
291 292 292 291 291 290 291 292 294 294 292 290 289 289 289 290 289 289 289 288 288 287 287 287 288 288 288 286 285 285 285 284 284 284 284 284 284 282 282 281 281 281 281 281 281 281 281 280 280 279 278 277 277 276 276 276 276 275 275 274 273 273 273 274 274 274 275 276 276 277 277 277 277 276 275 274 273 271 270 269 268 267 266 265 265 264
289 290 291 291 290 290 292 293 294 293 291 289 289 288 289 289 289 288 288 287 287 287 287 287 287 286 285 284 284 284 284 284 284 283 283 282 281 280 280 280 280 280 281 281 280 279 278 278 277 277 276 276 275 274 274 274 274 273 272 272 272 273 273 273 274 274 275 275 275 275 275 275 275 274 273 273 271 270 269 268 267 266 265 265 264 264
289 289 289 290 290 289 290 290 291 290 290 289 288 288 288 287 287 286 286 286 286 287 286 285 284 283 283 283 283 283 283 283 282 281 280 280 279 279 279 279 279 280 280 279 278 277 276 276 275 275 274 274 273 273 273 272 272 272 272 272 272 272 273 273 274 273 273 273 273 273 273 273 273 272 272 271 270 269 268 268 267 265 264 264 263 263
288 288 288 289 289 288 289 290 290 289 289 288 288 288 287 285 285 285 285 286 285 285 283 283 283 283 283 283 283 282 281 280 279 279 279 279 278 278 279 279 279 279 278 277 275 274 274 273 273 273 272 272 272 272 272 271 271 271 271 271 272 272 273 273 272 271 271 271 271 271 272 272 272 272 271 271 270 268 268 267 266 265 264 263 263 263
288 288 288 288 288 288 289 290 288 288 288 288 287 287 285 284 284 284 285 284 283 282 282 283 282 282 282 282 281 280 279 278 278 278 278 278 278 278 279 278 277 276 275 274 273 272 272 272 271 271 272 272 272 271 271 270 271 271 271 271 272 272 272 271 270 270 269 270 270 270 271 271 271 271 271 270 269 268 267 266 266 265 264 263 263 262
287 287 287 287 287 287 288 288 287 288 288 287 286 286 284 284 284 284 284 283 282 282 282 282 282 281 281 280 279 279 278 277 277 277 277 277 277 277 277 275 274 273 272 272 271 271 271 271 271 271 270 270 270 269 269 269 270 270 270 270 271 271 270 269 268 268 268 268 269 269 270 270 270 271 270 270 269 268 267 266 265 264 264 263 263 262
286 287 286 286 286 287 287 287 287 287 287 286 286 285 284 283 282 282 282 282 281 281 280 280 281 280 279 278 278 278 277 277 277 277 276 276 276 275 274 273 272 271 271 270 270 270 270 270 270 269 267 267 267 267 268 269 269 270 269 268 268 269 269 267 267 267 267 268 268 268 268 269 270 270 270 270 269 268 267 266 266 265 264 264 264 263
286 286 285 285 286 286 286 286 287 287 286 285 284 283 282 282 281 280 281 281 280 279 279 279 279 279 278 278 278 277 276 276 276 275 274 274 273 272 271 271 270 270 270 270 270 270 270 269 267 266 265 265 266 266 267 268 269 268 267 266 266 268 267 266 266 266 266 266 267 267 268 268 268 269 270 270 269 268 267 266 265 265 264 264 264 263
285 285 285 285 285 285 286 286 285 284 284 283 283 282 281 281 280 280 280 280 279 278 279 279 278 277 277 277 276 275 275 275 274 273 272 272 271 270 269 269 269 270 270 269 269 269 268 266 265 264 264 265 265 266 267 267 267 266 265 265 266 267 266 265 265 265 265 265 266 266 267 267 267 268 269 269 268 267 266 265 264 263 264 263 263 262
Wind_Speed
1 2 3 4 2 2 1 0 1 2 1 2 2 4 6 6 7 4 3 3 1 3 8 8 8 13 18 21 20 11 6 10 13 13 12 10 9 7 7 8 8 10 11 9 8 11 12 14 16 18 22 24 27 30 32 33 35 37 36 36 37 36 34 34 32 31 29 26 23 19 17 17 15 13 13 12 12 11 10 10 10 10 10 9 9 9
2 4 3 1 2 3 3 3 2 2 1 1 3 4 5 5 6 2 3 2 2 2 6 4 7 13 18 22 17 10 9 11 10 10 12 10 8 6 6 8 8 9 9 9 11 12 12 14 16 17 21 23 25 27 29 32 35 36 36 38 39 36 36 37 35 33 32 30 26 21 17 16 14 13 12 11 10 10 11 11 11 10 10 10 10 9
2 3 1 4 5 6 5 2 1 1 2 2 2 3 4 3 4 2 3 2 2 2 5 5 9 13 18 21 13 7 7 7 6 7 9 8 6 5 5 6 7 8 8 8 10 10 10 12 15 17 20 23 25 26 28 31 34 34 35 38 38 37 37 38 37 36 35 32 30 25 19 15 13 12 13 13 12 13 13 12 12 12 11 11 10 10
3 1 3 5 4 5 3 2 2 2 3 3 2 4 5 1 2 3 1 2 3 4 7 9 9 10 13 12 5 1 3 4 5 5 6 6 6 6 5 5 6 7 8 8 9 9 8 10 12 15 19 21 23 26 29 31 32 33 36 38 38 37 38 39 39 39 37 32 30 28 24 20 17 14 13 14 15 15 15 14 13 13 12 11 11 11
2 2 3 4 2 2 2 2 4 4 3 4 5 5 6 2 2 5 3 6 6 4 3 9 8 5 3 4 2 2 2 4 3 4 5 5 5 6 6 6 7 8 7 8 9 9 8 9 10 12 16 19 22 27 30 31 32 33 35 36 36 37 38 39 40 40 37 33 30 26 23 20 18 16 15 14 14 14 14 14 13 13 13 12 12 11
1 2 3 4 2 2 3 3 4 5 4 3 4 4 5 3 2 5 5 8 6 2 0 6 8 2 2 6 6 3 4 5 0 1 3 2 4 4 5 6 7 8 7 8 10 10 10 11 11 11 13 16 22 27 30 30 31 32 34 34 34 35 37 39 40 39 36 34 31 26 21 18 16 15 15 15 14 13 13 13 12 12 13 13 13 12
1 2 1 2 3 3 3 4 3 4 4 4 0 1 1 1 2 5 5 5 5 3 1 2 5 5 3 7 6 5 7 6 4 1 1 1 3 3 4 4 3 4 4 5 8 10 11 13 13 14 14 14 19 26 28 28 30 31 32 32 33 35 36 38 38 38 37 35 32 29 24 20 18 16 15 15 14 13 13 12 12 12 12 13 13 13
4 3 2 2 3 4 4 4 3 6 4 2 1 2 2 0 4 4 3 4 4 5 2 3 4 6 5 4 2 4 5 7 9 6 5 2 1 2 3 4 5 5 6 6 8 9 11 13 13 15 16 16 18 23 25 27 28 29 30 31 32 34 35 37 37 38 38 36 34 30 26 22 21 20 16 13 13 13 13 13 13 13 12 13 13 13
3 4 6 5 4 4 2 2 1 6 4 1 2 1 2 1 3 2 3 4 2 5 4 4 4 4 5 2 2 1 1 8 9 7 8 8 7 6 5 6 6 6 5 5 6 9 10 12 13 14 18 22 23 23 25 26 26 27 28 29 31 33 34 35 36 37 38 38 35 31 28 25 22 20 18 15 14 14 13 14 14 13 13 13 13 14
1 1 3 4 3 2 1 4 2 2 1 2 3 1 1 2 0 1 3 3 1 3 3 2 3 3 4 2 1 1 3 7 7 6 8 8 8 8 7 7 7 6 4 4 5 7 9 11 16 18 21 26 28 26 27 26 25 25 26 27 29 32 32 33 34 36 37 38 37 33 31 28 23 19 17 16 15 14 14 13 14 13 13 13 13 13
2 0 1 1 1 1 3 3 3 2 2 2 2 2 3 4 2 1 1 1 2 3 1 3 1 3 3 2 1 1 2 4 5 4 6 8 9 9 7 6 6 6 5 5 5 7 10 13 17 19 20 23 27 28 29 28 26 24 24 26 28 30 31 32 33 34 36 37 39 38 35 32 28 22 18 17 16 15 15 14 14 13 13 13 13 13
2 2 1 1 2 1 2 2 2 2 1 1 2 4 5 3 2 2 2 2 3 2 2 2 3 3 4 4 2 2 2 3 2 4 6 9 10 9 7 7 7 6 6 7 8 9 12 14 16 18 20 22 24 26 27 28 27 25 24 24 26 29 30 31 32 34 35 36 39 40 37 34 31 27 22 20 18 16 16 15 14 13 13 13 13 13
2 1 2 2 1 1 2 2 2 2 2 2 2 2 5 5 2 3 2 2 2 0 2 1 2 3 7 8 6 6 5 4 2 2 5 7 8 8 9 8 7 6 7 8 8 9 9 12 15 18 20 21 22 23 25 27 28 26 25 24 25 29 29 30 31 33 35 36 39 40 38 34 30 27 26 22 19 17 16 15 14 13 13 13 13 13
0 2 2 2 2 2 2 3 1 1 2 2 1 2 4 4 4 5 4 3 3 0 2 0 2 3 7 4 2 5 8 7 4 2 2 3 5 6 6 6 7 7 8 8 8 9 9 12 15 16 18 20 21 24 24 26 28 27 27 26 26 29 29 28 30 32 34 36 37 38 37 33 27 25 25 23 20 18 16 15 14 14 13 13 13 13
2 1 1 1 0 1 1 1 3 1 1 0 1 2 3 2 4 6 4 4 6 3 2 2 1 3 4 2 5 3 6 6 1 2 3 2 1 4 5 7 9 10 10 9 10 10 11 14 16 16 18 19 21 23 24 25 27 27 28 27 26 29 29 27 28 30 32 35 35 33 34 33 29 25 23 22 20 18 17 16 15 14 14 13 13 13
3 2 2 1 1 1 0 1 2 1 1 1 1 1 2 1 2 4 2 2 5 5 2 3 2 3 3 1 4 5 5 5 2 1 2 3 4 6 8 9 10 10 10 10 10 11 13 15 16 16 18 19 20 22 23 25 26 25 26 26 27 28 29 27 27 29 31 32 31 31 32 33 31 27 23 21 19 18 18 17 15 15 14 14 13 13
2 1 2 1 1 1 1 0 0 2 1 2 2 1 1 1 2 4 2 1 2 6 2 3 3 4 5 3 5 8 5 4 6 8 7 8 8 9 9 9 10 10 10 11 11 11 13 14 16 17 17 18 20 21 23 26 26 26 27 26 25 25 26 27 28 27 29 29 29 30 32 33 32 30 26 22 19 19 19 18 17 16 15 15 15 14
2 2 2 1 1 3 1 1 1 1 2 1 2 1 3 0 1 1 3 2 4 7 3 2 4 5 3 2 5 7 5 7 8 9 9 9 10 10 10 10 11 11 11 11 11 12 12 13 15 17 17 17 18 20 22 25 26 28 29 28 27 25 25 26 25 25 26 27 28 29 30 32 32 31 29 25 23 22 22 21 19 18 17 17 16 15
2 3 1 1 1 2 1 3 1 2 1 2 1 2 1 3 2 2 2 4 4 6 4 2 2 5 4 3 4 2 6 8 10 11 11 12 11 10 10 11 12 12 12 12 12 11 10 13 16 18 19 19 19 19 20 22 24 26 27 28 28 28 27 26 24 23 25 26 27 29 29 30 31 30 29 27 26 24 23 23 21 19 19 17 16 16
1 2 1 1 1 1 1 3 3 2 3 1 1 1 1 2 3 1 1 2 3 6 6 2 1 3 3 3 3 2 5 7 10 11 10 10 10 9 9 10 11 12 12 11 12 10 10 14 18 18 19 19 19 19 19 19 20 22 23 25 25 26 26 27 25 24 24 25 26 28 29 29 29 30 30 29 27 24 23 23 22 20 19 18 17 16
2 1 2 1 1 3 2 2 2 1 2 2 3 2 1 1 1 2 2 1 2 5 6 5 5 4 1 2 3 5 5 6 7 8 8 8 9 9 9 10 11 12 12 12 12 10 11 15 18 18 19 19 19 19 19 19 20 20 20 21 22 23 23 25 25 23 23 24 24 25 28 28 28 29 30 29 28 25 23 23 23 22 21 19 18 18
1 2 3 2 3 4 1 2 3 3 2 1 2 3 2 2 1 3 4 1 0 4 4 5 8 5 1 2 4 7 4 5 6 7 9 9 11 11 10 11 12 13 13 13 12 10 11 15 18 19 19 19 19 20 20 20 20 20 20 19 20 20 21 23 24 22 23 23 23 25 26 26 25 27 27 27 27 27 26 26 26 25 22 21 19 19
1 1 3 5 5 2 2 3 2 3 2 1 1 1 0 1 2 4 5 1 1 3 1 1 6 5 0 3 5 5 3 4 6 9 11 11 12 13 13 14 14 13 13 12 11 10 12 17 19 20 20 20 20 20 21 22 22 22 21 20 19 19 21 22 22 23 24 23 23 25 24 23 23 24 25 25 25 26 28 29 29 27 24 22 20 18
1 1 2 5 4 1 2 2 2 1 1 1 1 1 1 0 0 2 3 1 2 4 3 4 6 3 2 4 5 4 3 4 7 10 12 12 12 13 14 14 14 14 14 13 11 10 14 19 20 20 21 21 21 22 23 23 23 23 23 21 20 19 21 22 22 23 25 24 24 24 22 22 22 23 23 24 25 25 27 28 28 27 25 23 21 19
2 1 0 4 5 1 1 1 1 1 1 2 1 2 1 2 3 1 1 1 3 6 7 8 8 2 4 2 4 3 4 9 11 11 12 13 13 14 14 14 15 15 16 15 13 12 15 18 18 20 22 22 23 24 25 25 25 26 26 26 25 23 21 21 21 22 24 24 23 22 21 21 22 22 24 25 25 26 26 25 25 25 25 25 23 20
2 1 1 4 5 4 4 4 2 2 1 1 1 2 2 2 3 2 2 3 4 4 6 8 9 6 5 8 14 12 9 13 14 14 14 14 14 16 15 15 15 16 17 16 13 12 14 16 18 22 23 23 23 25 27 28 29 31 30 29 29 26 22 21 21 22 23 23 21 21 21 21 21 22 24 24 25 26 26 26 26 25 24 25 23 21
1 1 3 6 6 6 8 5 2 2 5 6 5 3 3 3 2 2 3 4 4 3 5 8 10 14 15 16 17 12 11 13 14 15 16 16 17 17 15 15 16 16 16 13 11 13 15 17 19 23 24 24 25 28 30 31 31 32 32 31 31 29 23 19 20 22 22 21 20 20 21 21 22 22 23 23 24 24 25 27 29 28 26 25 23 22
1 3 2 4 7 9 10 7 1 1 7 11 10 6 2 3 4 4 7 6 3 4 6 5 7 13 16 17 16 13 13 14 14 16 17 16 17 17 16 17 18 18 15 12 12 15 17 18 19 22 25 26 28 31 32 32 33 32 33 33 33 32 26 19 19 22 22 20 19 20 21 22 21 22 22 22 22 22 23 25 28 28 26 24 23 23
2 3 1 1 5 8 9 10 6 4 7 8 8 9 6 3 5 7 9 10 5 6 10 11 13 16 18 18 16 12 12 14 15 16 16 16 18 18 17 19 20 18 14 12 15 17 18 19 19 23 27 28 30 33 33 34 35 34 35 35 33 33 27 19 21 26 24 20 20 20 21 20 19 21 21 21 22 22 23 24 25 26 27 25 23 23
2 2 2 1 5 8 6 6 4 2 3 4 5 7 7 5 6 8 9 11 8 10 14 17 20 19 15 13 12 11 12 13 13 15 16 18 19 19 19 22 20 16 13 14 17 19 19 20 22 26 29 30 32 35 36 38 38 36 36 35 33 33 28 20 22 28 25 22 23 20 18 18 18 21 21 20 22 23 23 24 24 25 27 25 24 24
1 1 2 1 5 5 0 1 0 2 3 4 3 3 4 4 4 4 5 7 6 10 13 15 17 15 8 7 11 13 12 12 14 16 18 19 19 20 21 22 18 15 15 17 19 21 22 23 24 28 30 33 35 37 38 41 41 39 37 35 34 34 29 23 25 28 25 24 25 21 18 18 19 19 20 21 21 22 22 23 23 25 26 25 24 24
1 1 1 2 5 4 2 1 4 1 2 2 3 9 9 6 3 1 4 5 6 9 13 12 11 9 7 10 14 14 14 15 15 17 19 19 20 21 21 18 15 15 17 21 23 25 24 24 25 28 31 35 37 37 40 43 42 39 37 36 35 31 25 23 25 27 26 27 27 23 19 19 19 19 20 21 22 22 22 23 23 24 25 25 25 24
0 2 0 2 4 3 1 6 8 3 2 3 5 9 9 8 6 5 6 8 9 10 10 9 8 9 11 14 16 18 19 18 16 16 17 19 21 22 19 14 14 17 22 25 26 26 25 26 28 29 30 32 35 38 43 45 41 37 36 37 35 29 24 24 26 28 30 31 29 25 22 21 20 20 21 22 23 22 22 23 25 26 26 26 25 24
0 1 0 0 3 4 5 9 10 5 1 2 6 8 10 9 8 9 9 12 14 11 7 8 9 12 14 15 17 20 22 21 19 19 19 19 18 17 15 15 19 23 26 26 25 25 25 27 29 29 27 29 34 40 44 41 37 37 38 35 31 26 25 26 26 28 31 31 30 29 26 24 23 24 25 25 24 23 23 26 28 29 30 29 26 26
2 1 0 1 2 4 5 7 6 2 2 2 4 8 13 8 7 11 11 13 13 8 5 9 12 15 17 17 17 20 22 24 24 23 21 19 15 14 16 20 24 26 26 26 26 24 23 25 25 24 24 28 36 40 40 38 36 38 36 32 27 26 28 28 24 23 27 30 31 31 29 27 27 27 27 28 26 25 27 30 31 31 31 31 30 30
2 2 1 1 1 3 2 3 4 2 4 3 1 9 14 9 9 13 11 9 7 3 5 11 15 16 17 19 19 20 23 27 25 18 15 14 14 16 20 22 25 26 26 26 26 24 26 26 23 20 24 32 39 39 38 37 37 37 34 30 29 29 29 28 24 22 29 33 32 30 29 30 31 30 30 29 29 29 30 33 35 34 33 32 32 31
2 2 1 1 1 1 1 2 3 3 2 5 5 9 11 9 10 11 10 9 4 2 6 14 17 18 20 21 22 23 24 25 20 12 10 14 17 22 26 26 27 28 29 33 34 31 29 26 22 23 30 36 37 36 36 37 36 34 32 30 30 29 30 30 29 29 33 34 30 29 30 31 32 32 32 31 30 32 34 35 36 37 35 33 32 31
1 1 1 2 0 1 2 3 3 4 1 4 8 11 9 9 10 8 8 6 1 3 11 18 19 22 24 24 25 25 22 19 16 12 12 18 22 26 28 30 33 34 36 39 39 33 27 24 24 29 33 35 34 34 34 35 33 31 30 30 31 32 33 34 35 34 33 32 31 32 33 32 32 33 35 34 34 35 35 35 36 38 37 36 35 33
3 2 1 1 1 1 1 2 3 2 1 5 10 13 10 8 7 5 5 3 3 11 19 20 21 24 25 24 24 22 17 14 14 14 18 24 28 27 26 28 35 40 38 36 34 30 28 28 30 33 33 32 33 33 33 33 33 31 31 32 33 34 35 36 36 35 34 35 36 36 36 35 35 36 36 36 37 37 34 33 35 37 36 36 36 34
3 2 1 1 1 1 0 2 3 2 2 7 12 14 12 7 3 3 6 5 10 19 20 19 23 25 23 22 21 17 13 13 14 18 24 29 31 31 31 30 33 36 35 33 32 31 31 33 33 33 32 30 31 33 33 34 34 33 33 33 33 32 33 35 36 37 37 38 37 36 35 36 36 36 35 35 36 36 32 31 33 34 33 34 35 33
2 1 1 1 1 1 1 2 4 2 2 9 15 16 15 8 2 3 9 10 16 22 21 20 23 22 21 21 16 12 13 17 19 23 26 28 29 31 35 35 34 34 32 32 34 34 35 35 33 31 31 32 34 36 35 36 36 35 34 33 32 32 35 37 38 38 37 37 36 35 34 34 34 35 34 34 34 31 28 28 31 32 32 32 32 31
2 1 1 1 1 1 1 2 5 2 2 10 16 13 12 10 5 7 12 14 17 22 21 21 22 21 19 18 15 15 19 23 25 25 27 28 26 26 30 33 34 35 34 35 36 35 34 34 33 32 32 33 35 35 36 37 37 35 33 33 34 38 40 39 37 36 36 36 35 34 33 33 35 34 32 32 31 27 26 27 28 28 30 30 30 30
3 2 2 3 2 1 1 2 3 2 4 14 17 11 8 10 9 10 14 16 18 20 20 20 19 18 18 18 20 23 24 25 26 26 26 26 23 23 28 32 32 33 35 36 36 35 34 34 34 34 34 35 35 36 36 36 35 34 35 36 38 40 39 37 36 36 35 32 31 30 30 30 31 30 28 28 27 24 25 25 24 25 27 28 28 28
3 2 3 2 2 2 3 3 4 6 9 14 14 9 9 11 11 12 14 16 17 18 17 16 16 18 20 21 23 24 24 25 26 25 24 22 22 24 29 32 33 34 34 34 34 35 36 35 35 37 37 36 36 35 33 31 32 36 37 38 39 39 37 36 36 32 28 26 25 26 27 27 27 27 27 26 24 22 22 23 23 23 25 27 25 22
5 6 4 2 1 3 6 7 8 9 9 11 11 10 12 15 15 16 16 16 15 15 14 14 17 21 22 22 22 22 22 23 23 22 21 22 22 25 29 32 35 35 34 33 33 35 36 36 36 38 38 37 35 32 30 30 33 37 38 38 39 39 37 34 29 24 22 23 24 25 26 27 27 28 27 25 21 21 22 22 21 20 21 24 22 18
5 8 5 3 4 7 7 7 8 10 12 15 13 10 14 16 17 18 17 15 13 14 14 15 17 20 20 20 20 19 18 20 22 22 22 22 23 28 33 34 35 35 34 33 34 37 38 37 36 36 37 37 35 31 31 32 32 34 37 39 40 39 34 27 22 21 23 25 26 27 26 26 26 26 26 25 21 20 22 22 23 21 20 20 19 17
4 8 7 4 7 9 5 5 10 14 16 17 12 11 16 19 18 17 15 14 14 17 17 18 20 21 20 19 18 18 19 22 23 22 22 21 23 28 31 32 34 36 36 35 36 38 37 35 35 36 38 38 36 34 35 34 32 32 35 37 39 35 28 23 22 24 26 26 26 27 25 25 26 27 26 25 23 21 21 22 23 22 20 19 18 16
5 7 8 7 8 8 8 11 16 17 14 11 9 12 18 20 19 19 17 17 19 21 23 25 25 21 18 18 18 19 21 23 23 22 21 20 21 24 28 31 34 36 37 37 37 36 35 35 36 37 39 41 40 40 39 36 33 32 31 33 36 31 25 25 27 27 27 27 26 26 26 27 28 28 26 26 25 23 22 22 23 24 24 25 25 22
6 6 8 10 9 7 9 13 18 15 9 6 10 16 19 19 20 20 20 20 21 22 23 25 26 23 21 21 22 21 21 22 24 25 22 18 19 24 29 34 36 37 38 38 37 37 36 35 37 41 44 44 43 42 40 36 33 31 31 38 41 34 25 26 29 28 27 28 27 27 28 28 28 28 26 26 25 25 24 25 26 27 28 31 33 32
6 7 9 9 8 7 10 14 16 12 7 9 16 21 21 21 21 21 20 19 19 22 23 22 24 28 29 28 27 25 21 21 24 26 22 19 23 29 33 35 37 38 39 39 39 39 35 32 36 42 44 42 41 40 39 35 33 35 42 50 47 34 24 26 30 29 28 27 26 27 29 29 28 28 26 25 23 23 23 24 25 26 28 28 30 32
8 9 10 9 8 10 13 14 12 9 9 14 19 20 20 22 23 22 21 19 21 26 27 22 21 26 28 31 34 31 24 21 26 27 24 24 29 33 34 35 36 37 38 39 40 39 37 38 41 42 41 41 41 38 37 36 37 41 49 51 41 28 24 30 33 30 28 28 28 29 30 29 28 27 26 23 21 19 17 15 15 17 21 23 24 26
Wind_Direction
299 256 229 248 245 187 151 197 318 42 47 263 245 262 262 264 276 277 103 106 124 266 261 251 253 272 280 280 285 291 256 250 259 259 262 259 253 250 245 247 245 249 257 261 257 250 248 249 247 250 256 258 259 260 257 254 254 253 249 246 246 244 242 240 237 235 234 231 231 231 232 236 239 237 240 247 255 259 258 258 267 277 276 268 268 276
244 261 246 232 83 101 106 105 101 103 112 237 237 265 266 251 267 301 86 124 152 259 267 269 280 280 281 281 287 302 288 277 272 268 271 271 267 263 253 254 252 254 264 265 263 257 246 246 248 250 255 256 255 257 256 256 256 254 251 248 246 244 241 240 238 235 235 234 232 230 230 233 232 229 233 237 237 243 253 256 258 266 268 265 265 269
240 251 105 89 104 106 98 104 131 153 182 226 234 267 277 266 277 301 87 117 163 255 285 302 302 285 277 282 296 320 300 293 291 277 281 287 283 274 262 258 258 263 270 270 268 261 246 245 250 252 254 255 255 257 258 259 258 254 251 250 247 243 242 241 239 236 236 237 237 236 235 234 233 234 238 241 242 247 256 258 255 259 262 262 261 262
269 281 87 100 128 129 116 134 164 182 212 227 234 262 273 329 319 270 87 69 221 237 291 297 287 273 271 279 295 340 300 291 281 265 268 275 272 272 274 268 264 265 271 276 277 271 257 246 246 249 254 258 259 259 259 258 257 253 252 252 248 244 242 242 240 239 238 237 238 240 241 241 241 242 243 248 253 254 258 258 253 253 255 256 258 259
272 56 101 128 136 157 165 171 191 231 251 226 219 246 274 314 293 264 328 328 275 208 276 294 284 259 259 293 294 136 222 262 251 253 258 246 244 257 267 266 257 256 264 274 280 281 274 261 253 252 259 263 262 262 263 261 257 256 256 255 251 246 244 243 242 240 237 235 236 237 238 239 241 243 241 241 244 243 244 247 243 243 246 251 256 256
299 69 154 155 150 190 203 219 209 227 269 254 219 242 287 326 304 279 318 324 295 218 71 333 318 295 74 327 328 34 327 308 271 247 277 241 223 234 249 251 241 243 248 253 269 280 286 286 282 277 272 269 270 272 273 269 265 263 262 258 254 250 247 245 243 240 236 233 233 229 225 224 226 230 232 229 231 229 229 234 236 236 240 246 251 251
87 90 192 167 176 186 218 253 208 190 261 287 247 30 3 18 301 291 315 318 299 299 12 16 299 279 334 326 336 360 329 352 55 47 352 215 219 222 245 259 257 266 277 274 281 290 297 302 305 302 296 285 282 287 287 282 277 272 267 261 256 253 250 247 243 239 235 232 231 228 224 223 223 228 232 228 226 226 228 232 233 234 238 241 243 246
120 138 189 175 187 201 229 262 182 178 245 293 100 40 51 296 285 292 300 275 287 321 313 179 230 266 295 308 1 329 323 39 52 43 52 59 32 358 322 336 341 339 345 330 313 312 310 310 309 305 305 303 298 300 301 295 288 282 274 268 262 257 253 248 244 240 236 232 229 228 226 226 229 232 233 228 225 229 232 234 234 236 239 236 236 239
118 174 190 176 191 222 236 351 139 196 243 15 110 3 25 321 289 272 271 268 291 323 296 164 177 248 272 247 134 248 37 56 40 32 36 28 30 22 6 5 354 349 347 327 311 309 309 309 310 312 316 322 324 319 316 310 301 291 282 275 267 262 257 251 246 242 238 234 231 229 227 228 230 232 232 229 228 230 231 233 234 234 235 235 235 237
66 219 202 186 212 249 55 40 22 220 249 88 127 144 154 164 181 181 259 273 214 272 289 107 155 257 279 240 197 245 70 46 19 26 27 16 25 26 17 9 357 356 346 318 300 298 306 317 326 331 332 336 339 334 330 326 316 303 291 281 272 267 261 255 251 246 241 236 232 230 230 229 228 226 226 226 227 227 227 230 231 230 232 236 236 236
82 33 278 225 270 16 74 66 32 44 70 132 185 253 238 197 166 138 195 238 235 236 336 37 295 293 301 265 44 47 76 35 359 7 20 16 24 25 19 10 2 360 348 334 326 322 327 330 335 340 340 341 344 343 340 335 327 315 302 289 279 273 266 260 255 249 244 239 234 233 232 231 229 223 219 220 222 222 222 226 229 230 233 235 235 235
125 182 180 74 21 41 124 113 69 83 122 218 257 291 286 251 185 180 154 177 247 246 65 3 285 274 270 267 326 41 100 71 10 348 6 11 14 14 10 8 7 359 350 346 342 339 337 337 342 346 346 345 345 345 344 339 333 324 312 299 287 280 273 264 259 253 247 241 237 236 234 233 232 227 222 222 223 221 221 225 228 229 231 233 233 233
182 168 88 80 65 22 245 203 148 150 165 234 257 290 301 305 284 258 252 218 255 36 95 4 307 261 258 270 302 331 1 47 54 353 357 359 0 4 2 357 355 351 349 347 341 337 337 342 347 347 347 347 346 345 343 340 337 329 320 309 296 290 283 270 263 257 251 245 241 239 236 233 231 228 226 226 225 224 222 224 225 226 229 231 232 231
259 118 102 157 131 38 281 250 236 171 156 213 262 320 308 318 309 291 299 287 282 52 140 141 349 266 264 275 329 349 9 39 44 348 314 326 345 346 341 338 340 347 349 346 342 340 342 346 348 348 348 347 346 346 343 341 340 334 327 318 306 300 294 279 270 263 255 250 246 242 239 235 231 228 228 227 225 224 222 223 224 225 229 232 234 234
293 235 101 144 63 5 265 286 342 354 136 147 34 336 287 284 288 291 314 308 298 305 162 172 258 231 243 103 105 56 40 63 88 208 215 228 329 322 329 347 351 351 349 346 343 342 345 347 348 349 349 347 346 345 344 342 341 337 332 324 315 309 303 290 278 270 263 256 250 244 240 238 234 231 229 229 227 224 221 222 223 224 228 231 235 235
265 264 55 45 329 333 196 90 350 291 196 108 90 267 257 270 280 278 308 312 297 302 209 188 227 223 246 9 108 112 100 112 134 110 59 33 26 360 357 1 354 348 344 341 341 341 343 346 349 349 348 347 345 345 344 343 341 337 333 328 320 315 310 300 288 278 271 263 254 246 243 241 237 234 231 229 226 224 223 222 223 224 226 229 232 233
274 261 88 103 144 50 5 32 308 296 298 137 193 231 105 41 301 273 275 138 244 279 249 179 245 244 268 307 127 135 118 70 31 18 15 18 17 5 3 359 348 343 339 336 338 337 340 344 346 345 343 343 343 344 345 343 341 338 335 331 324 317 312 307 299 287 278 269 258 251 247 244 240 236 233 230 227 226 226 226 225 224 223 226 227 228
293 277 97 97 129 91 359 258 106 2 317 246 221 111 100 90 299 273 279 275 255 268 250 165 264 266 278 296 155 140 78 32 18 9 2 6 7 1 358 351 343 339 332 333 335 334 338 341 341 340 339 339 340 341 342 341 342 341 339 336 329 322 315 309 301 290 283 275 264 256 250 246 243 239 235 232 230 229 229 229 226 224 224 224 223 223
280 276 66 76 195 100 161 235 190 110 21 327 315 95 95 262 243 163 266 294 286 281 276 182 241 265 246 216 204 134 48 19 3 5 2 358 355 349 347 343 339 336 332 334 335 334 338 339 338 337 336 337 338 338 337 337 338 339 339 338 333 329 324 317 308 296 288 281 271 264 257 250 244 240 237 233 231 229 228 229 227 225 225 222 220 220
226 281 315 152 185 359 190 216 233 154 116 60 210 138 45 286 279 261 274 304 287 287 295 279 239 262 227 175 169 106 56 23 5 3 352 341 336 333 337 338 335 334 332 332 331 330 334 336 336 335 332 333 332 332 333 333 334 334 334 335 333 331 328 324 317 305 294 287 277 269 264 256 247 242 239 235 232 228 227 229 229 228 227 224 222 219
163 235 273 163 168 270 236 196 262 242 150 182 201 201 184 187 287 292 253 275 284 282 290 283 275 270 187 120 124 125 86 34 11 350 332 325 325 328 335 336 335 332 330 329 328 325 329 332 333 331 329 328 327 329 330 329 329 329 329 331 330 329 328 325 320 309 299 292 283 273 267 259 250 245 240 236 233 229 227 228 229 231 230 228 225 220
194 217 264 268 248 258 270 58 359 342 344 292 242 238 222 188 237 274 261 164 109 273 281 289 287 287 159 137 130 124 85 26 7 342 332 328 328 335 340 337 335 330 324 324 322 319 324 329 330 328 326 326 327 327 327 326 325 325 326 327 328 327 326 324 321 314 305 296 286 278 271 260 249 244 239 235 232 230 229 230 231 232 230 227 226 222
295 242 253 264 264 277 33 50 21 356 21 28 306 287 142 192 230 264 276 293 176 248 312 302 272 280 63 133 131 113 69 20 1 345 339 335 334 338 337 332 329 323 318 317 315 316 324 328 328 326 325 325 325 325 326 326 325 325 324 324 324 326 326 324 322 319 313 302 292 285 275 259 248 243 238 233 231 231 232 233 234 233 229 227 226 221
238 238 244 265 267 129 114 128 114 65 136 188 226 135 166 204 353 286 293 345 257 238 240 263 259 267 98 136 150 134 92 13 353 349 341 333 331 331 329 327 323 320 319 319 317 317 325 328 327 326 326 325 325 325 325 325 323 324 323 321 322 324 327 327 324 322 318 308 298 289 275 261 251 243 238 234 232 231 232 233 234 232 231 230 227 222
236 221 215 288 299 322 181 180 148 146 180 229 221 114 139 90 85 56 145 111 258 235 223 252 267 252 135 158 280 305 14 360 349 348 341 332 328 327 326 325 322 321 320 320 319 321 326 329 328 328 326 324 322 323 322 322 322 322 323 323 322 322 325 326 323 322 320 311 299 288 275 264 255 245 240 237 235 234 232 230 231 231 231 232 229 223
275 254 205 278 302 309 301 316 331 331 359 230 208 143 177 170 151 224 259 243 252 220 201 237 265 280 286 302 307 315 350 353 342 340 336 329 323 320 320 321 320 320 319 318 319 322 326 328 328 327 324 322 322 322 322 322 322 321 321 321 320 319 319 319 319 319 318 312 299 286 276 267 257 250 244 240 238 237 234 230 231 230 230 231 229 222
308 270 238 246 254 265 286 315 33 346 304 286 281 244 188 177 174 221 255 250 259 274 245 239 259 281 293 302 305 319 348 345 335 333 329 322 317 316 316 316 315 314 314 315 316 320 325 328 327 325 324 323 323 323 322 321 320 319 318 317 317 317 314 310 313 316 315 310 298 284 277 271 264 257 249 244 240 237 234 234 234 233 231 229 226 221
270 264 246 240 246 258 286 304 359 253 280 281 289 287 229 162 161 193 230 248 292 306 276 255 262 279 292 301 308 329 344 334 327 323 319 315 312 313 313 313 313 313 313 313 317 324 328 328 327 326 326 326 325 323 322 319 317 316 315 314 315 316 312 306 309 313 312 306 296 285 281 277 270 262 254 246 243 237 232 234 234 233 232 228 223 222
258 271 16 58 265 270 283 287 273 252 263 267 274 283 279 216 178 199 237 257 271 271 275 290 294 289 292 299 313 337 335 321 317 315 312 312 311 313 315 314 314 315 316 318 323 329 330 327 327 326 326 326 325 324 323 320 318 316 314 313 313 311 307 302 305 310 309 303 297 291 286 280 272 268 261 249 243 237 232 232 231 231 231 227 223 225
235 261 55 82 283 285 280 286 285 241 258 271 268 277 284 259 221 221 248 268 267 255 265 283 291 288 287 298 316 328 318 312 313 312 313 314 315 318 317 314 316 318 319 323 327 329 327 325 326 326 326 326 326 326 325 322 319 315 312 310 308 304 301 296 299 304 302 298 300 297 289 281 274 271 265 251 242 237 232 230 228 229 230 226 223 224
260 320 67 96 292 294 203 86 228 179 244 283 303 338 334 297 251 231 260 278 272 263 271 281 285 286 295 325 323 316 313 317 319 320 321 319 319 320 315 312 314 316 318 323 327 326 324 324 326 326 326 325 324 324 323 320 317 313 309 306 302 299 298 295 295 296 293 293 298 297 288 283 278 270 263 253 244 237 230 226 224 225 226 223 220 221
275 295 75 41 309 294 125 6 297 241 188 225 28 24 7 347 336 273 268 272 266 280 291 291 289 299 331 337 322 314 318 323 324 326 322 316 316 315 311 309 311 316 322 326 325 323 322 323 324 322 321 320 320 320 322 320 315 310 307 305 301 297 296 295 292 291 290 291 294 292 287 285 279 268 260 253 244 237 230 224 221 221 221 219 217 216
300 266 359 17 300 272 15 331 312 297 173 147 71 29 6 353 336 302 287 288 281 284 296 299 303 322 331 329 323 321 323 324 326 327 319 312 311 310 309 313 318 321 324 323 321 321 320 318 316 313 312 315 318 320 322 320 313 309 308 305 301 297 297 297 294 294 294 293 292 291 289 286 279 269 263 256 246 237 229 224 222 220 219 218 216 214
90 256 320 10 270 283 331 326 303 280 259 106 86 40 8 349 322 306 300 298 293 290 297 308 318 327 329 329 327 322 320 320 322 323 316 307 306 309 315 325 326 323 321 318 317 317 313 307 306 303 304 311 318 320 320 317 312 309 309 305 300 297 298 297 296 295 296 294 292 291 289 287 280 273 269 263 250 235 227 227 228 226 225 221 215 213
137 161 201 168 252 291 328 331 310 302 48 118 120 29 3 335 301 306 294 280 284 295 323 328 327 328 326 324 322 318 316 316 318 320 314 306 309 321 325 325 323 320 316 314 315 312 302 295 296 298 304 315 321 321 319 316 313 312 311 308 304 301 300 300 297 295 297 295 290 288 287 286 281 275 272 266 254 239 233 234 233 230 227 224 220 218
154 156 167 181 262 288 325 358 331 353 55 81 90 4 359 345 329 328 308 277 281 327 5 340 326 323 321 318 318 319 318 316 315 315 314 315 325 330 324 320 318 315 314 315 312 301 293 293 298 306 317 322 323 322 319 317 315 314 314 311 307 304 306 309 307 302 301 298 289 283 284 285 281 275 271 266 255 245 239 238 236 232 228 225 223 222
158 153 221 237 213 317 292 286 284 273 71 67 20 353 351 333 318 315 303 295 293 79 5 337 325 323 323 320 321 323 321 317 312 311 323 327 326 324 319 316 316 315 315 314 308 299 297 304 314 322 325 323 321 321 319 315 313 315 315 314 314 314 314 314 310 305 301 296 288 283 283 282 279 275 271 265 256 248 244 241 238 234 229 225 222 221
69 30 328 283 237 30 296 293 302 279 177 60 2 343 338 312 296 285 284 288 135 54 348 337 330 327 326 324 324 325 324 317 309 311 328 327 322 321 319 318 319 318 316 316 316 316 319 324 325 324 323 320 318 319 318 315 318 322 322 321 321 319 315 311 308 303 299 294 293 292 290 285 281 278 273 266 259 253 248 243 240 236 231 226 223 221
48 35 50 296 304 40 304 306 310 281 100 33 348 339 342 320 294 276 267 250 45 359 343 337 330 326 325 324 324 324 323 316 311 316 325 325 322 323 322 320 320 320 322 327 330 330 327 324 323 322 321 320 321 324 325 325 326 326 322 319 317 314 310 309 308 307 304 303 302 301 297 293 289 284 277 270 265 259 250 243 241 238 232 228 224 222
44 17 14 345 333 29 279 291 286 257 45 11 348 346 348 328 256 273 292 312 349 342 338 335 327 323 323 321 320 323 322 318 315 315 320 322 322 321 320 320 323 326 330 332 331 327 323 322 322 323 324 327 330 331 330 328 324 320 317 315 313 310 309 310 310 309 307 305 305 302 299 297 292 286 280 274 269 263 252 244 242 238 231 226 224 222
60 7 5 18 346 335 230 272 299 277 59 5 351 352 349 332 274 319 318 324 334 331 329 330 324 320 320 320 321 324 318 315 313 313 317 319 318 318 321 326 329 329 328 327 326 326 324 322 322 324 328 333 332 330 329 326 320 317 317 316 315 313 312 312 311 309 306 305 304 301 299 296 291 287 283 276 270 262 252 245 241 236 229 224 221 220
27 343 7 359 327 360 193 266 298 270 88 10 353 353 360 352 336 325 322 323 327 325 323 324 321 319 322 324 324 321 317 316 316 315 315 317 318 323 329 331 329 326 325 326 327 327 325 323 326 329 330 331 329 327 326 323 318 316 318 318 317 315 313 312 310 308 305 304 302 300 299 296 294 292 287 279 271 260 250 245 240 234 228 222 218 218
345 317 5 354 331 330 276 282 315 307 18 13 360 353 6 1 334 320 323 322 323 323 321 320 321 327 331 328 323 321 319 318 316 316 318 322 326 330 328 327 327 326 325 326 327 329 332 330 328 327 326 326 327 326 325 324 319 318 319 317 315 314 313 311 308 306 304 305 307 309 310 310 309 306 298 287 275 260 250 246 238 230 225 220 216 215
10 1 346 339 37 24 311 321 347 329 346 7 1 340 342 346 334 327 326 322 321 323 323 323 327 332 331 325 321 319 317 316 318 322 326 329 330 328 326 326 327 326 326 327 330 335 336 330 324 322 322 324 326 326 326 326 322 317 315 314 314 314 311 307 306 308 312 317 321 322 323 324 322 316 307 296 280 260 249 244 235 226 221 217 212 208
50 16 321 266 39 344 280 272 298 315 339 355 345 331 339 342 335 329 323 317 318 326 330 330 328 327 325 323 320 318 318 322 327 330 329 328 327 327 326 325 326 327 331 334 335 335 332 326 322 321 321 324 326 324 324 324 320 315 314 315 315 312 307 307 312 320 327 327 324 323 322 322 322 319 313 304 285 263 250 241 230 221 215 212 207 200
42 15 340 270 326 318 275 264 298 320 335 334 329 340 349 340 332 327 323 320 326 331 332 327 322 322 323 324 323 323 327 332 332 328 326 326 326 324 324 325 328 333 335 335 334 332 329 325 323 321 321 321 322 323 323 322 319 315 315 316 313 310 310 317 326 330 330 326 323 320 317 315 318 319 314 306 290 269 254 243 230 219 210 204 201 199
14 11 355 327 333 325 299 312 332 331 327 324 331 350 343 333 328 327 325 329 333 331 327 324 323 324 326 330 332 332 331 331 329 325 325 326 324 324 328 331 333 333 332 330 328 327 326 324 322 322 322 322 323 325 324 322 319 316 316 317 316 317 324 335 335 329 326 322 320 318 315 311 312 311 306 300 290 272 257 245 233 221 210 201 196 195
335 349 346 334 328 307 286 308 325 323 316 321 346 348 334 329 328 328 329 333 332 329 327 327 327 329 333 336 336 331 326 327 327 325 326 327 327 329 331 331 329 327 326 324 324 325 325 324 324 327 327 325 323 323 321 320 318 317 319 326 328 330 336 337 331 325 322 319 316 315 313 309 307 302 295 291 284 270 255 243 232 222 217 214 209 201
309 324 335 327 319 302 297 318 329 324 310 323 344 337 330 329 328 327 329 332 332 334 333 331 333 336 335 334 335 331 327 327 328 329 330 330 331 331 329 327 325 324 322 322 323 325 325 327 330 332 327 322 320 320 319 318 317 319 328 333 329 324 327 331 329 326 322 318 315 313 310 307 303 297 287 281 277 269 259 250 239 230 227 226 224 218
338 344 341 332 326 319 321 332 339 336 319 323 333 332 333 334 332 329 330 333 338 341 336 332 336 337 333 334 338 335 327 327 331 333 333 330 328 328 326 325 323 322 322 325 326 325 326 332 334 329 322 318 319 319 317 318 320 327 333 330 322 315 322 332 330 325 321 317 313 311 308 305 300 296 288 278 272 268 262 256 247 238 233 233 232 228
359 347 339 331 319 314 322 335 348 343 319 318 325 331 336 337 333 329 332 339 343 339 333 334 339 337 332 333 335 332 328 333 338 336 331 327 327 326 324 324 323 323 325 327 327 326 329 333 331 325 321 319 317 315 317 323 328 331 329 324 317 317 330 336 330 323 320 317 312 309 307 303 300 299 293 281 271 265 259 251 241 235 232 232 233 229